Regional Weather Roundup
Issued by NWS Jackson, KY

Home | Current Version | Previous Version | Graphics & Text | Print | Product List | Glossary On
Versions: 1 2 3 4 5 6 7 8 9 10 11 12 13 14 15 16 17 18 19 20 21 22 23 24 25 26 27
000
ASUS43 KJKL 261710
RWRJKL

EAST KENTUCKY HOURLY WEATHER ROUNDUP
NATIONAL WEATHER SERVICE JACKSON KY
100 PM EDT FRI AUG 26 2016

NOTE: "FAIR" INDICATES FEW OR NO CLOUDS BELOW 12,000 FEET WITH
NO SIGNIFICANT WEATHER AND/OR OBSTRUCTIONS TO VISIBILITY.

* THESE REPORTS ARE NOT UNDER NWS QUALITY CONTROL AND MAY NOT
  REPORT WEATHER SUCH AS PRECIPITATION AND FOG.

KYZ079-080-083-085-087-088-110-112-115-119-120-261800
...EASTERN KENTUCKY...

CITY           SKY/WX    TMP DP  RH WIND       PRES   REMARKS
JACKSON        MOSUNNY   86  71  60 CALM      30.19F HX  91
LONDON         MOSUNNY   87  68  52 CALM      30.18F HX  90
SOMERSET*      MOSUNNY   88  70  55 CALM      30.17F HX  92
MONTICELLO*    PTSUNNY  N/A N/A N/A VRB5      30.18F
WILLIAMSBURG*  PTSUNNY   84  73  70 CALM      30.18F HX  91
MIDDLESBORO*   MOSUNNY   88  74  62 E5        30.18F HX  96
HARLAN APT*    PTSUNNY   88  70  55 CALM      30.20F HX  92
PIKE CO APT*     N/A     85  71  62 CALM      30.20F HX  90
BIG SANDY APT* PTSUNNY   86  73  65 W3        30.19S HX  93
MOREHEAD APT*  MOSUNNY   86  72  62 SE3       30.18F HX  92
ASHLAND*       SUNNY     88  75  66 CALM      30.12  HX  97
$$

KYZ035-036-041-042-044-050-067-078-099-261800
...CENTRAL KENTUCKY...

CITY           SKY/WX    TMP DP  RH WIND       PRES   REMARKS
FLEMING/MASON* CLOUDY    88  71  57 CALM      30.17F HX  94
DANVILLE*      SUNNY     88  70  55 SE3       30.18F HX  92
LEXINGTON      MOSUNNY   89  68  49 CALM      30.16F HX  93
FRANKFORT      SUNNY     89  69  51 E6        30.14F HX  93
LOUISVILLE     PTSUNNY   90  70  51 E6        30.13F HX  95
LEBANON*         N/A     90  72  55 CALM      30.16F HX  96
GLASGOW*       MOSUNNY   89  73  58 E3        30.14F HX  96
BOWLING GREEN  PTSUNNY   91  72  53 CALM      30.13F HX  98
$$

KYZ091>093-OHZ055-061-077-WVZ005-015-034-035-042-261800
...SOUTHERN OHIO/WEST VIRGINIA...

CITY           SKY/WX    TMP DP  RH WIND       PRES   REMARKS
COVINGTON      MOSUNNY   87  74  64 VRB5      30.14F HX  95
COLUMBUS       PTSUNNY   85  71  63 CALM      30.14S HX  90
DAYTON         CLOUDY    84  73  69 N6        30.17S HX  90
WILMINGTON     PTSUNNY   85  74  69 S3        30.15F HX  92
HUNTINGTON     MOSUNNY   91  73  55 CALM      30.15F HX  99
CHARLESTON     MOSUNNY   87  71  58 CALM      30.16F HX  93
PINEVILLE*     PTSUNNY   88  67  51 MISG      30.25F HX  91
BECKLEY        MOSUNNY   82  68  62 NW9       30.25S
BLUEFIELD      PTSUNNY   81  64  56 VRB7      30.28S
LOGAN CO APT*    N/A     86  72  62 CALM      30.20S HX  92
$$

VAZ002-007-008-TNZ017-027-036-066-071-261800
...SOUTHWEST VIRGINIA/EAST TENNESSEE...

CITY           SKY/WX    TMP DP  RH WIND       PRES   REMARKS
WISE*          MOSUNNY   82  61  47 N5        30.28F
JONESVILLE*      N/A     86  72  62 CALM      30.21F HX  92
ABINGDON*      MOSUNNY   86  69  56 N5        30.23F HX  90
BRISTOL        MOSUNNY   87  70  56 SE8       30.19F HX  92
MORRISTOWN*    MOSUNNY   88  72  58 VRB5      30.17F HX  94
SEVIERVILLE*     N/A     88  70  55 NE9       30.15F HX  92
KNOXVILLE      MOSUNNY   91  70  49 NE10      30.14F HX  96
OAK RIDGE      SUNNY     89  72  56 VRB5      30.15F HX  96
CROSSVILLE     SUNNY     87  69  54 NE8       30.21F HX  91
NASHVILLE      MOSUNNY   91  74  57 E8        30.12F HX 100
$$

...KEY TO REMARKS...
VSB - VISIBILITY IN MILES
WCI - WIND CHILL INDEX
HX  - HEAT INDEX

$$




USA.gov is the U.S. government's official web portal to all federal, state and local government web resources and services.